KUIPER-00209

Last updated on Sun Mar 15 2026 00:02:06 GMT+0000 (Coordinated Universal Time)

1 67776U 26030N 26073.58256017 .00032513 00000+0 11215-2 0 9991 2 67776 51.8839 196.3495 0012984 76.8274 283.4158 15.29619368 5831
UTC large
Height (km)
Speed (km/s)
/
Latitude / Longitude
Inclination (degrees)
Orbital Period (minutes)
Azimuth
Elevation
Range (km)
Doppler Factor

Next 0 passes for location: London (51.5072 / 0.1276)

Sorry there are no passes over London.